FW6650 Weather Reports


Display with metric or nautical units.
time (UTC)temp
F
wind
direction
speed
MPH
gust
MPH
rain 1hr
in
rain 24hr
in
rain mn
in
humidity
%
barometer
mb
20260505230526 60 227 2.0 5.0 0.00 0.00 0.00 61 1014.5
20260505230039 60 229 2.0 5.0 0.00 0.00 0.00 61 1014.4
20260505225528 59 178 3.0 5.0 0.00 0.00 0.00 62 1014.6
20260505225027 59 158 1.0 3.0 0.00 0.00 0.00 65 1014.6
20260505224539 59 158 0.0 2.0 0.00 0.00 0.00 66 1014.6
20260505224030 60 158 0.0 2.0 0.00 0.00 0.00 65 1014.6
20260505223528 60 158 1.0 2.0 0.00 0.00 0.00 65 1014.7
20260505223042 60 158 1.0 2.0 0.00 0.00 0.00 65 1014.6
20260505222526 60 158 0.0 2.0 0.00 0.00 0.00 64 1014.7
20260505222028 60 0 0.0 2.0 0.00 0.00 0.00 64 1014.7
20260505221533 60 0 0.0 1.0 0.00 0.00 0.00 64 1014.6
20260505221026 60 0 0.0 1.0 0.00 0.00 0.00 65 1014.6
20260505220526 60 0 0.0 1.0 0.00 0.00 0.00 64 1014.7
20260505220044 60 0 0.0 3.0 0.00 0.00 0.00 63 1014.6
20260505215526 60 0 0.0 5.0 0.00 0.00 0.00 63 1014.6
20260505215026 61 0 2.0 6.0 0.00 0.00 0.00 63 1014.7
20260505214557 61 158 3.0 6.0 0.00 0.00 0.00 63 1014.6
20260505214026 61 169 3.0 5.0 0.00 0.00 0.00 63 1014.6
20260505213531 61 175 2.0 4.0 0.00 0.00 0.00 63 1014.7
20260505213051 61 177 2.0 3.0 0.00 0.00 0.00 63 1014.8
20260505212527 60 177 2.0 4.0 0.00 0.00 0.00 63 1014.8
20260505212027 60 180 2.0 4.0 0.00 0.00 0.00 63 1014.8
20260505211536 60 180 2.0 4.0 0.00 0.00 0.00 62 1014.8
20260505211026 60 186 1.0 3.0 0.00 0.00 0.00 61 1014.9
20260505210526 61 186 0.0 2.0 0.00 0.00 0.00 60 1014.9
20260505210042 61 0 0.0 2.0 0.00 0.00 0.00 60 1014.8
20260505205526 61 0 0.0 3.0 0.00 0.00 0.00 61 1014.7
20260505205030 61 186 1.0 3.0 0.00 0.00 0.00 60 1014.7
20260505204536 61 186 0.0 2.0 0.00 0.00 0.00 61 1014.7
20260505204026 61 186 1.0 3.0 0.00 0.00 0.00 61 1014.7
20260505203526 61 186 1.0 3.0 0.00 0.00 0.00 61 1014.8
20260505203045 61 186 1.0 3.0 0.00 0.00 0.00 61 1014.9
20260505202525 61 187 0.0 1.0 0.00 0.00 0.00 61 1014.9
20260505202028 62 0 0.0 0.0 0.00 0.00 0.00 61 1014.9
20260505201548 62 0 0.0 1.0 0.00 0.00 0.00 61 1014.9
20260505201027 62 0 0.0 3.0 0.00 0.00 0.00 60 1014.9
20260505200528 62 0 0.0 3.0 0.00 0.00 0.00 60 1014.9
20260505200037 62 187 2.0 3.0 0.00 0.00 0.00 59 1014.9
20260505195526 63 188 1.0 3.0 0.00 0.00 0.00 59 1014.9
20260505195026 63 190 1.0 3.0 0.00 0.00 0.00 59 1014.9
20260505194537 63 190 1.0 4.0 0.00 0.00 0.00 59 1014.9
20260505194029 63 190 1.0 4.0 0.00 0.00 0.00 59 1014.9
20260505193526 63 195 2.0 4.0 0.00 0.00 0.00 59 1014.8
20260505193046 63 254 0.0 2.0 0.00 0.00 0.00 59 1014.9
20260505192526 64 0 0.0 0.0 0.00 0.00 0.00 58 1015.0
20260505192028 63 0 0.0 0.0 0.00 0.00 0.00 59 1015.0
20260505191550 64 0 0.0 0.0 0.00 0.00 0.00 58 1014.9
20260505191027 64 0 0.0 0.0 0.00 0.00 0.00 58 1014.8
20260505190525 64 0 0.0 0.0 0.00 0.00 0.00 58 1014.7
20260505190044 64 0 0.0 0.0 0.00 0.00 0.00 57 1014.8
20260505185526 65 0 0.0 0.0 0.00 0.00 0.00 57 1014.7
20260505185111 65 0 0.0 0.0 0.00 0.00 0.00 56 1014.6
20260505184533 65 0 0.0 0.0 0.00 0.00 0.00 55 1014.6
20260505184029 65 0 0.0 3.0 0.00 0.00 0.00 56 1014.6
20260505183530 65 0 0.0 3.0 0.00 0.00 0.00 56 1014.5
20260505183047 66 360 1.0 3.0 0.00 0.00 0.00 56 1014.6
20260505182526 66 0 0.0 2.0 0.00 0.00 0.00 56 1014.4
20260505182026 66 11 1.0 2.0 0.00 0.00 0.00 56 1014.4
20260505181533 66 0 0.0 5.0 0.00 0.00 0.00 56 1014.4
20260505181030 66 14 0.0 5.0 0.00 0.00 0.00 56 1014.3
20260505180526 67 15 2.0 5.0 0.00 0.00 0.00 55 1014.2
20260505180042 67 225 0.0 3.0 0.00 0.00 0.00 55 1014.2
20260505175526 68 224 0.0 3.0 0.00 0.00 0.00 53 1014.2
20260505175026 68 208 1.0 4.0 0.00 0.00 0.00 53 1014.2
20260505174540 68 208 0.0 6.0 0.00 0.00 0.00 53 1014.1
20260505174026 68 207 2.0 6.0 0.00 0.00 0.00 52 1014.0
20260505173526 68 208 3.0 6.0 0.00 0.00 0.00 51 1013.8
20260505173040 68 205 1.0 6.0 0.00 0.00 0.00 51 1013.8
20260505172526 68 206 3.0 6.0 0.00 0.00 0.00 51 1013.9
20260505172029 68 157 1.0 5.0 0.00 0.00 0.00 51 1013.9
20260505171541 68 137 3.0 8.0 0.00 0.00 0.00 48 1013.9
20260505171027 67 130 4.0 8.0 0.00 0.00 0.00 53 1014.0
20260505170526 67 111 5.0 8.0 0.00 0.00 0.00 55 1013.9
20260505170034 67 84 4.0 8.0 0.00 0.00 0.00 56 1014.0
20260505165526 67 84 3.0 12.0 0.00 0.00 0.00 56 1013.9
20260505165026 67 101 6.0 12.0 0.00 0.00 0.00 57 1013.9
20260505164538 67 103 6.0 11.0 0.00 0.00 0.00 60 1014.0
20260505164026 67 96 5.0 13.0 0.00 0.00 0.00 61 1014.1
20260505163525 67 71 4.0 13.0 0.00 0.00 0.00 61 1014.2
20260505163036 68 103 6.0 11.0 0.00 0.00 0.00 61 1014.2
20260505162526 68 94 5.0 12.0 0.00 0.00 0.00 60 1014.1
20260505162026 68 83 4.0 12.0 0.00 0.00 0.00 62 1014.1
20260505161537 68 84 5.0 15.0 0.00 0.00 0.00 61 1014.0
20260505161026 69 117 9.0 15.0 0.00 0.00 0.00 60 1014.0
20260505160527 69 119 7.0 12.0 0.00 0.00 0.00 58 1014.0
20260505153046 72 80 2.0 9.0 0.00 0.00 0.00 50 1013.8
20260505152527 72 79 2.0 12.0 0.00 0.00 0.00 49 1013.8
20260505152028 71 68 5.0 12.0 0.00 0.00 0.00 49 1013.9
20260505151540 72 96 6.0 11.0 0.00 0.00 0.00 47 1013.9
20260505151027 72 86 6.0 10.0 0.00 0.00 0.00 47 1014.0
20260505150526 73 138 4.0 10.0 0.00 0.00 0.00 45 1013.9
20260505140531 75 257 5.0 13.0 0.00 0.00 0.00 32 1013.9
20260505125026 74 217 8.0 19.0 0.00 0.00 0.00 32 1014.5
20260505124540 74 222 9.0 19.0 0.00 0.00 0.00 33 1014.5
20260505124026 74 259 11.0 19.0 0.00 0.00 0.00 33 1014.5
20260505123526 74 236 5.0 14.0 0.00 0.00 0.00 33 1014.6
20260505123049 73 206 8.0 14.0 0.00 0.00 0.00 33 1014.7
20260505122525 74 219 4.0 17.0 0.00 0.00 0.00 34 1014.7
20260505122027 74 210 8.0 17.0 0.00 0.00 0.00 33 1014.7
20260505121535 73 225 9.0 16.0 0.00 0.00 0.00 34 1014.7
20260505121027 74 173 4.0 18.0 0.00 0.00 0.00 35 1014.9
20260505120526 73 239 6.0 18.0 0.00 0.00 0.00 36 1014.8
20260505120046 73 240 9.0 16.0 0.00 0.00 0.00 36 1014.9
20260505115526 74 229 7.0 17.0 0.00 0.00 0.00 36 1015.0
20260505115026 73 221 8.0 17.0 0.00 0.00 0.00 37 1015.0
20260505114545 74 221 8.0 15.0 0.00 0.00 0.00 36 1015.1
20260505114026 73 223 5.0 15.0 0.00 0.00 0.00 38 1015.0
20260505113526 73 215 8.0 17.0 0.00 0.00 0.00 39 1015.0
20260505113044 73 206 7.0 17.0 0.00 0.00 0.00 40 1015.0
20260505112526 74 209 8.0 15.0 0.00 0.00 0.00 40 1015.1
20260505112026 74 271 7.0 18.0 0.00 0.00 0.00 41 1015.1
20260505111538 73 262 7.0 18.0 0.00 0.00 0.00 40 1015.1
20260505111026 74 192 5.0 15.0 0.00 0.00 0.00 40 1015.3
20260505110526 73 210 6.0 14.0 0.00 0.00 0.00 40 1015.2
20260505102022 72 186 10.0 19.0 0.00 0.00 0.00 41 1015.3
20260505101539 72 241 6.0 14.0 0.00 0.00 0.00 43 1015.4
20260505101026 72 213 8.0 14.0 0.00 0.00 0.00 42 1015.4
20260505100529 72 271 4.0 14.0 0.00 0.00 0.00 45 1015.4
20260505100038 72 250 6.0 14.0 0.00 0.00 0.00 41 1015.4
20260505095527 72 215 7.0 16.0 0.00 0.00 0.00 44 1015.4
20260505095025 71 171 8.0 16.0 0.00 0.00 0.00 44 1015.7
20260505094537 71 251 7.0 14.0 0.00 0.00 0.00 45 1015.5
20260505094025 72 231 5.0 11.0 0.00 0.00 0.00 42 1015.5
20260505093525 72 241 4.0 12.0 0.00 0.00 0.00 42 1015.6
20260505093042 71 157 7.0 13.0 0.00 0.00 0.00 43 1015.6
20260505092523 70 214 6.0 13.0 0.00 0.00 0.00 41 1015.7
20260505092026 70 273 7.0 13.0 0.00 0.00 0.00 40 1015.7
20260505091542 71 221 4.0 9.0 0.00 0.00 0.00 37 1015.8
20260505091025 70 188 3.0 9.0 0.00 0.00 0.00 37 1015.7
20260505090526 71 261 4.0 10.0 0.00 0.00 0.00 38 1015.8
20260505090050 70 238 3.0 10.0 0.00 0.00 0.00 34 1015.7
20260505085526 70 253 3.0 9.0 0.00 0.00 0.00 37 1015.8
20260505085026 70 247 3.0 9.0 0.00 0.00 0.00 37 1015.9
20260505084538 70 247 4.0 9.0 0.00 0.00 0.00 37 1015.9
20260505084026 70 223 4.0 12.0 0.00 0.00 0.00 37 1015.8
20260505083525 69 188 4.0 12.0 0.00 0.00 0.00 36 1016.0
20260505083034 69 240 7.0 12.0 0.00 0.00 0.00 37 1016.0
20260505082529 69 228 5.0 12.0 0.00 0.00 0.00 37 1015.9
20260505082026 69 242 5.0 12.0 0.00 0.00 0.00 37 1016.0
20260505081544 68 222 6.0 11.0 0.00 0.00 0.00 38 1016.0
20260505081026 68 231 5.0 11.0 0.00 0.00 0.00 38 1016.0
20260505080525 68 224 6.0 10.0 0.00 0.00 0.00 37 1016.0
20260505080048 68 257 3.0 10.0 0.00 0.00 0.00 39 1016.0
20260505075522 67 223 5.0 10.0 0.00 0.00 0.00 38 1015.9
20260505075025 68 248 3.0 9.0 0.00 0.00 0.00 39 1016.0
20260505074535 67 257 4.0 9.0 0.00 0.00 0.00 40 1016.0
20260505074026 67 242 6.0 9.0 0.00 0.00 0.00 39 1016.0
20260505073526 67 257 5.0 9.0 0.00 0.00 0.00 40 1016.0
20260505073052 66 239 4.0 9.0 0.00 0.00 0.00 41 1016.0
20260505072526 66 264 5.0 9.0 0.00 0.00 0.00 42 1016.0
20260505072027 65 272 3.0 8.0 0.00 0.00 0.00 42 1016.1
20260505071537 65 265 2.0 9.0 0.00 0.00 0.00 43 1016.1
20260505071026 65 239 3.0 9.0 0.00 0.00 0.00 44 1016.1
20260505070528 65 204 3.0 8.0 0.00 0.00 0.00 44 1015.9
20260505070044 64 215 3.0 8.0 0.00 0.00 0.00 44 1016.0
20260505065525 64 248 3.0 8.0 0.00 0.00 0.00 45 1016.0
20260505065025 64 265 4.0 8.0 0.00 0.00 0.00 45 1016.0
20260505064535 63 267 5.0 9.0 0.00 0.00 0.00 45 1015.9
20260505064025 63 242 4.0 9.0 0.00 0.00 0.00 45 1015.9
20260505063528 63 267 4.0 8.0 0.00 0.00 0.00 45 1015.9
20260505063034 63 247 2.0 7.0 0.00 0.00 0.00 44 1015.9
20260505062522 63 217 3.0 8.0 0.00 0.00 0.00 44 1015.7
20260505062022 62 229 5.0 9.0 0.00 0.00 0.00 46 1015.7
20260505061541 62 244 4.0 9.0 0.00 0.00 0.00 47 1015.8
20260505061022 62 248 5.0 8.0 0.00 0.00 0.00 49 1015.8
20260505060526 62 258 3.0 6.0 0.00 0.00 0.00 48 1015.7
20260505060039 61 255 2.0 6.0 0.00 0.00 0.00 50 1015.7
20260505055528 61 233 3.0 6.0 0.00 0.00 0.00 50 1015.7
20260505055026 61 250 2.0 4.0 0.00 0.00 0.00 52 1015.6
20260505054538 60 257 1.0 5.0 0.00 0.00 0.00 53 1015.6
20260505054026 60 260 2.0 5.0 0.00 0.00 0.00 54 1015.7
20260505053525 60 207 3.0 5.0 0.00 0.00 0.00 54 1015.6
20260505053045 59 265 2.0 6.0 0.00 0.00 0.00 56 1015.6
20260505052525 59 272 1.0 6.0 0.00 0.00 0.00 57 1015.6
20260505052027 59 239 2.0 5.0 0.00 0.00 0.00 56 1015.5
20260505051537 58 228 2.0 5.0 0.00 0.00 0.00 56 1015.4
20260505051023 58 214 2.0 6.0 0.00 0.00 0.00 56 1015.6
20260505050522 58 231 1.0 6.0 0.00 0.00 0.00 57 1015.6
20260505050113 57 229 3.0 6.0 0.00 0.00 0.00 57 1015.5
20260505041548 54 234 1.0 4.0 0.00 0.00 0.00 65 1015.4
20260505041025 54 234 1.0 3.0 0.00 0.00 0.00 65 1015.4
20260505040525 54 234 1.0 5.0 0.00 0.00 0.00 59 1015.4
20260505040055 54 234 1.0 5.0 0.00 0.00 0.00 63 1015.2
20260505035522 54 234 3.0 5.0 0.00 0.00 0.00 58 1015.2
20260505035025 54 0 0.0 4.0 0.00 0.00 0.00 62 1015.2
20260505034542 54 206 1.0 6.0 0.00 0.00 0.00 61 1015.2
20260505034028 54 206 2.0 6.0 0.00 0.00 0.00 60 1015.1
20260505033522 54 190 3.0 6.0 0.00 0.00 0.00 60 1015.1
20260505033036 54 217 3.0 6.0 0.00 0.00 0.00 61 1015.1
20260505032530 54 204 3.0 7.0 0.00 0.00 0.00 65 1015.1
20260505032026 54 218 2.0 7.0 0.00 0.00 0.00 69 1015.1
20260505031544 53 236 2.0 5.0 0.00 0.00 0.00 72 1015.1
20260505031027 53 234 3.0 5.0 0.00 0.00 0.00 72 1015.2
20260505030527 53 244 2.0 5.0 0.00 0.00 0.00 71 1015.1
20260505030040 54 250 2.0 6.0 0.00 0.00 0.00 72 1015.2
20260505025530 54 223 4.0 6.0 0.00 0.00 0.00 72 1015.2
20260505025029 54 221 2.0 4.0 0.00 0.00 0.00 73 1015.3
20260505024532 54 209 2.0 5.0 0.00 0.00 0.00 71 1015.3
20260505024028 54 197 2.0 5.0 0.00 0.00 0.00 71 1015.3
20260505023527 54 180 3.0 6.0 0.00 0.00 0.00 70 1015.3
20260505023045 54 213 4.0 7.0 0.00 0.00 0.00 71 1015.4
20260505022528 54 216 5.0 7.0 0.00 0.00 0.00 72 1015.4
20260505022027 54 206 4.0 9.0 0.00 0.00 0.00 72 1015.3
20260505021539 54 223 4.0 9.0 0.00 0.00 0.00 73 1015.3
20260505021030 54 224 5.0 7.0 0.00 0.00 0.00 74 1015.3
20260505020527 54 236 3.0 7.0 0.00 0.00 0.00 74 1015.4
20260505020037 54 252 3.0 7.0 0.00 0.00 0.00 74 1015.4
20260505015527 54 234 2.0 4.0 0.00 0.00 0.00 73 1015.4
20260505015026 54 228 2.0 8.0 0.00 0.00 0.00 73 1015.5
20260505014542 55 224 2.0 8.0 0.00 0.00 0.00 73 1015.5
20260505014026 55 212 3.0 7.0 0.00 0.00 0.00 73 1015.4
20260505013527 55 221 4.0 7.0 0.00 0.00 0.00 73 1015.5
20260505013043 55 231 3.0 8.0 0.00 0.00 0.00 73 1015.5
20260505012528 55 226 3.0 8.0 0.00 0.00 0.00 73 1015.6
20260505012028 55 229 4.0 8.0 0.00 0.00 0.00 72 1015.5
20260505011541 55 231 4.0 8.0 0.00 0.00 0.00 72 1015.5
20260505011028 55 227 4.0 8.0 0.00 0.00 0.00 72 1015.5
20260505010527 54 217 4.0 8.0 0.00 0.00 0.00 72 1015.6
20260505010037 54 221 3.0 6.0 0.00 0.00 0.00 71 1015.6
20260505005527 53 244 3.0 5.0 0.00 0.00 0.00 70 1015.6
20260505005027 53 254 1.0 3.0 0.00 0.00 0.00 69 1015.7
20260505004538 53 254 1.0 3.0 0.00 0.00 0.00 69 1015.7
20260505004026 53 255 1.0 3.0 0.00 0.00 0.00 68 1015.7
20260505003527 53 255 2.0 6.0 0.00 0.00 0.00 68 1015.8
20260505003033 53 255 2.0 5.0 0.00 0.00 0.00 69 1015.8
20260505002527 53 256 2.0 4.0 0.00 0.00 0.00 70 1015.9
20260505002026 53 257 2.0 4.0 0.00 0.00 0.00 71 1016.0
20260505001533 53 261 1.0 4.0 0.00 0.00 0.00 72 1016.0
20260505001027 53 261 1.0 3.0 0.00 0.00 0.00 72 1016.0
20260505000527 53 261 1.0 4.0 0.00 0.00 0.00 72 1016.0
20260505000051 53 261 2.0 4.0 0.00 0.00 0.00 71 1016.0
20260504235527 53 261 2.0 4.0 0.00 0.00 0.00 71 1016.1
20260504235027 53 262 1.0 3.0 0.00 0.00 0.00 71 1016.1
20260504234553 53 263 1.0 3.0 0.00 0.00 0.00 71 1016.2
20260504234026 53 262 0.0 3.0 0.00 0.00 0.00 70 1016.2
20260504233527 53 0 1.0 4.0 0.00 0.00 0.00 70 1016.2
20260504233039 53 262 2.0 4.0 0.00 0.00 0.00 69 1016.3
20260504232527 53 261 2.0 3.0 0.00 0.00 0.00 68 1016.3
20260504232029 53 261 2.0 4.0 0.00 0.00 0.00 67 1016.3
20260504231537 53 259 2.0 4.0 0.00 0.00 0.00 64 1016.4
20260504231026 53 260 2.0 4.0 0.00 0.00 0.00 64 1016.4